Location: Laguna de la Cañada del Gallo
(40.3974°N, 5.2096°W)
Time: 15:35:22
(UTC+00:00)

Cosmos 2227 Rocket - Visible Passes

Search period start: 12 July 2024 00:00
Search period end: 22 July 2024 00:00
Orbit: 838 x 844 km, 71.0° (Epoch: 12 July)

Date Brightness Start Highest point End Pass type
(mag) Time Alt. Az. Time Alt. Az. Time Alt. Az.
12 Jul 4.2 03:48:37 10° N 03:53:38 32° ENE 03:58:37 10° ESE visible
12 Jul 5.3 20:24:55 10° W 20:28:53 19° NW 20:32:53 10° N visible
13 Jul 4.3 03:33:30 10° N 03:38:27 30° ENE 03:43:21 10° ESE visible
14 Jul 4.3 03:18:23 10° N 03:23:15 29° NE 03:28:05 10° ESE visible
15 Jul 4.3 03:03:16 10° N 03:08:03 27° NE 03:12:48 10° ESE visible
16 Jul 4.4 02:48:10 10° N 02:52:51 26° NE 02:57:30 10° ESE visible
16 Jul 2.5 04:31:42 10° NW 04:37:05 46° WSW 04:42:25 10° S visible
17 Jul 4.4 02:33:02 10° N 02:37:39 25° NE 02:42:12 10° ESE visible
17 Jul 2.4 04:16:30 10° NW 04:21:56 49° WSW 04:27:19 10° S visible
18 Jul 4.4 02:17:56 10° N 02:22:26 24° NE 02:26:54 10° ESE visible
18 Jul 2.3 04:01:18 10° NNW 04:06:46 52° WSW 04:12:12 10° S visible
19 Jul 4.4 02:02:50 10° N 02:07:13 23° NE 02:11:35 10° ESE visible
19 Jul 2.3 03:46:07 10° NNW 03:51:37 55° WSW 03:57:05 10° S visible
20 Jul 4.5 01:47:45 10° N 01:52:02 22° NE 01:56:16 10° ESE visible
20 Jul 2.2 03:30:55 10° NNW 03:36:27 59° WSW 03:41:58 10° S visible
21 Jul 4.5 01:32:39 10° N 01:36:49 21° NE 01:40:57 10° E visible
21 Jul 2.2 03:15:44 10° NNW 03:21:19 62° WSW 03:26:50 10° S visible
